UAL247 KORD-KOMA

Flight info

Callsign UAL247
Flight time 1h 12m
Altitude 38000
Route OLINN OREOS OBENE DSM LANTK2
Aircraft A320/M-SDE3FGHIRWY/LB1

Departure

Time 2026-05-06 17:33
Airport Chicago O'Hare International Airport (KORD)

Arrival

Time 2026-05-06 18:46
Airport Eppley Airfield (KOMA)
Time Latitude Longitude Altitude Speed Heading
2026-05-06 17:03 41.98201 -87.90417 669 ft 0 kts 180°
2026-05-06 17:09 41.98202 -87.90417 669 ft 0 kts 180°
2026-05-06 17:22 41.98201 -87.90417 669 ft 0 kts 180°
2026-05-06 17:22 41.98202 -87.90417 669 ft 0 kts 180°
2026-05-06 17:25 41.98215 -87.90417 668 ft 4 kts 175°
2026-05-06 17:25 41.98242 -87.90422 668 ft 4 kts 165°
2026-05-06 17:26 41.98267 -87.90434 667 ft 4 kts 148°
2026-05-06 17:26 41.98286 -87.90457 667 ft 4 kts 106°
2026-05-06 17:26 41.98288 -87.90467 667 ft 0 kts 90°
2026-05-06 17:29 41.98288 -87.90455 666 ft 3 kts 90°
2026-05-06 17:30 41.98288 -87.90396 668 ft 11 kts 90°
2026-05-06 17:30 41.98287 -87.90285 669 ft 13 kts 90°
2026-05-06 17:30 41.98287 -87.90153 669 ft 15 kts 90°
2026-05-06 17:30 41.98288 -87.90025 669 ft 14 kts 90°
2026-05-06 17:31 41.98288 -87.89881 670 ft 16 kts 90°
2026-05-06 17:31 41.98289 -87.89725 670 ft 18 kts 89°
2026-05-06 17:31 41.98289 -87.89548 670 ft 20 kts 91°
2026-05-06 17:31 41.98288 -87.89352 670 ft 22 kts 90°
2026-05-06 17:32 41.98288 -87.89147 668 ft 19 kts 90°
2026-05-06 17:32 41.98287 -87.89006 668 ft 14 kts 90°
2026-05-06 17:32 41.98320 -87.88920 668 ft 12 kts 18°
2026-05-06 17:32 41.98385 -87.88936 667 ft 8 kts 304°
2026-05-06 17:33 41.98390 -87.89092 668 ft 40 kts 270°
2026-05-06 17:33 41.98387 -87.89791 671 ft 104 kts 270°
2026-05-06 17:33 41.98386 -87.91007 692 ft 148 kts 270°
2026-05-06 17:33 41.98389 -87.92363 1333 ft 143 kts 270°
2026-05-06 17:34 41.98390 -87.93741 1967 ft 152 kts 270°
2026-05-06 17:34 41.98378 -87.95267 2320 ft 173 kts 269°
2026-05-06 17:34 41.98333 -87.96982 2673 ft 197 kts 266°
2026-05-06 17:34 41.98231 -87.98909 3232 ft 217 kts 266°
2026-05-06 17:35 41.98110 -88.01005 4021 ft 227 kts 266°
2026-05-06 17:35 41.97979 -88.03122 5077 ft 228 kts 265°
2026-05-06 17:35 41.97818 -88.05265 5990 ft 236 kts 265°
2026-05-06 17:36 41.97431 -88.09931 7503 ft 256 kts 264°
2026-05-06 17:36 41.97228 -88.12317 8415 ft 258 kts 264°
2026-05-06 17:36 41.97024 -88.14728 9340 ft 260 kts 264°
2026-05-06 17:36 41.96823 -88.17154 10204 ft 263 kts 264°
2026-05-06 17:37 41.96619 -88.19601 11040 ft 263 kts 264°
2026-05-06 17:37 41.96414 -88.22044 11907 ft 263 kts 264°
2026-05-06 17:37 41.96207 -88.24484 12789 ft 263 kts 263°
2026-05-06 17:37 41.95997 -88.26958 13667 ft 263 kts 263°
2026-05-06 17:38 41.95785 -88.29434 14418 ft 266 kts 263°
2026-05-06 17:38 41.95565 -88.32000 14595 ft 288 kts 263°
2026-05-06 17:38 41.95329 -88.34766 14798 ft 306 kts 263°
2026-05-06 17:38 41.95087 -88.37636 15322 ft 312 kts 263°
2026-05-06 17:39 41.94843 -88.40542 15989 ft 314 kts 263°
2026-05-06 17:39 41.94596 -88.43460 16668 ft 316 kts 263°
2026-05-06 17:39 41.94345 -88.46398 17343 ft 317 kts 263°
2026-05-06 17:39 41.94093 -88.49355 18054 ft 319 kts 263°
2026-05-06 17:40 41.93837 -88.52320 18709 ft 321 kts 263°
2026-05-06 17:40 41.93578 -88.55305 19349 ft 322 kts 262°
2026-05-06 17:40 41.93316 -88.58292 19998 ft 323 kts 262°
2026-05-06 17:40 41.93053 -88.61297 20653 ft 325 kts 262°
2026-05-06 17:41 41.92787 -88.64319 21277 ft 326 kts 262°
2026-05-06 17:41 41.92520 -88.67346 21895 ft 327 kts 261°
2026-05-06 17:41 41.92251 -88.70388 22484 ft 329 kts 261°
2026-05-06 17:41 41.91981 -88.73443 23085 ft 330 kts 261°
2026-05-06 17:42 41.91708 -88.76511 23652 ft 332 kts 261°
2026-05-06 17:42 41.91433 -88.79596 24129 ft 333 kts 261°
2026-05-06 17:42 41.91196 -88.82697 24596 ft 335 kts 263°
2026-05-06 17:42 41.91058 -88.85826 25054 ft 337 kts 264°
2026-05-06 17:43 41.90978 -88.88975 25500 ft 338 kts 265°
2026-05-06 17:43 41.90914 -88.92136 25940 ft 340 kts 265°
2026-05-06 17:43 41.90844 -88.95310 26363 ft 341 kts 265°
2026-05-06 17:43 41.90762 -88.98506 26790 ft 343 kts 265°
2026-05-06 17:44 41.90670 -89.01705 27218 ft 344 kts 265°
2026-05-06 17:44 41.90603 -89.03871 27493 ft 345 kts 265°
2026-05-06 17:44 41.90498 -89.07101 27901 ft 347 kts 265°
2026-05-06 17:44 41.90387 -89.10343 28309 ft 349 kts 265°
2026-05-06 17:45 41.90273 -89.13601 28713 ft 350 kts 265°
2026-05-06 17:45 41.90157 -89.16876 29095 ft 352 kts 265°
2026-05-06 17:45 41.90044 -89.20164 29477 ft 354 kts 265°
2026-05-06 17:45 41.89863 -89.23464 29852 ft 355 kts 262°
2026-05-06 17:46 41.89584 -89.26762 30035 ft 353 kts 261°
2026-05-06 17:46 41.89258 -89.29979 30053 ft 344 kts 261°
2026-05-06 17:46 41.88578 -89.36289 30055 ft 340 kts 260°
2026-05-06 17:47 41.87928 -89.42575 30064 ft 340 kts 261°
2026-05-06 17:47 41.87308 -89.48867 30066 ft 340 kts 261°
2026-05-06 17:48 41.86690 -89.55156 30072 ft 340 kts 261°
2026-05-06 17:48 41.86063 -89.61488 30077 ft 340 kts 261°
2026-05-06 17:49 41.85444 -89.67735 30076 ft 340 kts 261°
2026-05-06 17:49 41.84816 -89.74065 30078 ft 340 kts 261°
2026-05-06 17:50 41.84252 -89.80370 30077 ft 341 kts 262°
2026-05-06 17:50 41.83709 -89.86684 30081 ft 341 kts 262°
2026-05-06 17:51 41.83160 -89.93003 30083 ft 341 kts 262°
2026-05-06 17:51 41.82594 -89.99312 30089 ft 341 kts 261°
2026-05-06 17:52 41.82022 -90.05634 30090 ft 341 kts 261°
2026-05-06 17:52 41.81452 -90.11954 30090 ft 342 kts 262°
2026-05-06 17:53 41.80879 -90.18286 30090 ft 342 kts 261°
2026-05-06 17:53 41.80301 -90.24605 30092 ft 342 kts 261°
2026-05-06 17:54 41.79716 -90.30944 30091 ft 342 kts 261°
2026-05-06 17:54 41.79126 -90.37274 30091 ft 342 kts 261°
2026-05-06 17:55 41.78527 -90.43603 30089 ft 343 kts 261°
2026-05-06 17:55 41.77929 -90.49939 30093 ft 343 kts 261°
2026-05-06 17:56 41.77327 -90.56281 30098 ft 343 kts 261°
2026-05-06 17:56 41.76725 -90.62619 30102 ft 343 kts 261°
2026-05-06 17:57 41.76129 -90.68970 30101 ft 344 kts 261°
2026-05-06 17:57 41.75524 -90.75317 30101 ft 344 kts 261°
2026-05-06 17:58 41.74898 -90.81715 30096 ft 344 kts 261°
2026-05-06 17:58 41.74278 -90.88026 30101 ft 344 kts 261°
2026-05-06 17:59 41.73644 -90.94424 30101 ft 345 kts 261°
2026-05-06 17:59 41.73019 -91.00788 30110 ft 345 kts 261°
2026-05-06 18:00 41.72388 -91.07202 30112 ft 345 kts 261°
2026-05-06 18:00 41.71753 -91.13568 30117 ft 345 kts 261°
2026-05-06 18:01 41.71116 -91.19942 30116 ft 346 kts 261°
2026-05-06 18:01 41.70475 -91.26324 30121 ft 346 kts 261°
2026-05-06 18:02 41.69826 -91.32695 30132 ft 346 kts 261°
2026-05-06 18:02 41.69174 -91.39073 30130 ft 346 kts 261°
2026-05-06 18:03 41.68514 -91.45454 30127 ft 346 kts 261°
2026-05-06 18:03 41.67860 -91.51837 30129 ft 347 kts 261°
2026-05-06 18:04 41.67202 -91.58225 30127 ft 347 kts 261°
2026-05-06 18:04 41.66533 -91.64613 30133 ft 347 kts 261°
2026-05-06 18:05 41.65858 -91.71004 30130 ft 347 kts 261°
2026-05-06 18:05 41.65182 -91.77398 30127 ft 347 kts 261°
2026-05-06 18:06 41.64504 -91.83832 30127 ft 347 kts 261°
2026-05-06 18:06 41.63822 -91.90227 30125 ft 347 kts 261°
2026-05-06 18:07 41.63131 -91.96625 30126 ft 348 kts 261°
2026-05-06 18:07 41.62444 -92.03018 30124 ft 348 kts 261°
2026-05-06 18:08 41.61748 -92.09410 30131 ft 348 kts 261°
2026-05-06 18:08 41.61047 -92.15807 30128 ft 348 kts 260°
2026-05-06 18:09 41.60349 -92.22209 30131 ft 348 kts 261°
2026-05-06 18:09 41.59651 -92.28602 30135 ft 348 kts 260°
2026-05-06 18:10 41.58944 -92.34991 30144 ft 348 kts 260°
2026-05-06 18:10 41.58233 -92.41376 30147 ft 347 kts 260°
2026-05-06 18:11 41.57635 -92.46678 30152 ft 347 kts 260°
2026-05-06 18:11 41.56798 -92.54132 30155 ft 347 kts 260°
2026-05-06 18:12 41.56080 -92.60507 30152 ft 347 kts 260°
2026-05-06 18:12 41.55720 -92.63696 29751 ft 346 kts 260°
2026-05-06 18:12 41.55361 -92.66860 29328 ft 344 kts 260°
2026-05-06 18:13 41.55004 -92.70002 28901 ft 341 kts 260°
2026-05-06 18:13 41.54645 -92.73124 28492 ft 339 kts 260°
2026-05-06 18:13 41.54282 -92.76256 28081 ft 336 kts 260°
2026-05-06 18:13 41.53926 -92.79328 27677 ft 334 kts 260°
2026-05-06 18:14 41.53571 -92.82382 27282 ft 331 kts 260°
2026-05-06 18:14 41.53222 -92.85402 26939 ft 329 kts 260°
2026-05-06 18:14 41.52874 -92.88424 26690 ft 328 kts 260°
2026-05-06 18:14 41.52646 -92.90418 26514 ft 327 kts 260°
2026-05-06 18:15 41.52188 -92.94421 26204 ft 325 kts 260°
2026-05-06 18:15 41.51961 -92.96394 26122 ft 325 kts 260°
2026-05-06 18:15 41.51614 -92.99369 26147 ft 325 kts 260°
2026-05-06 18:15 41.51265 -93.02349 26136 ft 325 kts 260°
2026-05-06 18:16 41.50914 -93.05328 26132 ft 325 kts 260°
2026-05-06 18:16 41.50559 -93.08344 26146 ft 325 kts 260°
2026-05-06 18:16 41.50206 -93.11324 26144 ft 325 kts 260°
2026-05-06 18:16 41.49856 -93.14308 26144 ft 325 kts 260°
2026-05-06 18:17 41.49507 -93.17288 26137 ft 325 kts 260°
2026-05-06 18:17 41.49154 -93.20264 26136 ft 325 kts 260°
2026-05-06 18:17 41.48799 -93.23243 26136 ft 325 kts 260°
2026-05-06 18:17 41.48444 -93.26222 26136 ft 325 kts 260°
2026-05-06 18:18 41.48087 -93.29200 26138 ft 325 kts 260°
2026-05-06 18:18 41.47729 -93.32181 26137 ft 325 kts 260°
2026-05-06 18:18 41.47375 -93.35156 26141 ft 325 kts 260°
2026-05-06 18:18 41.47018 -93.38143 26142 ft 325 kts 260°
2026-05-06 18:19 41.46657 -93.41117 26142 ft 325 kts 260°
2026-05-06 18:19 41.46293 -93.44089 26144 ft 325 kts 260°
2026-05-06 18:19 41.45931 -93.47059 26143 ft 325 kts 260°
2026-05-06 18:19 41.45572 -93.50044 26145 ft 325 kts 260°
2026-05-06 18:20 41.45216 -93.53019 26146 ft 325 kts 260°
2026-05-06 18:20 41.44854 -93.55999 26144 ft 325 kts 259°
2026-05-06 18:20 41.44489 -93.58976 26145 ft 325 kts 259°
2026-05-06 18:20 41.44123 -93.61953 26145 ft 326 kts 260°
2026-05-06 18:21 41.43893 -93.64957 26148 ft 327 kts 265°
2026-05-06 18:21 41.43929 -93.67987 26144 ft 329 kts 270°
2026-05-06 18:21 41.44104 -93.71023 26147 ft 329 kts 270°
2026-05-06 18:21 41.44278 -93.74060 26144 ft 329 kts 270°
2026-05-06 18:22 41.44452 -93.77099 26145 ft 328 kts 270°
2026-05-06 18:22 41.44624 -93.80135 26129 ft 328 kts 270°
2026-05-06 18:22 41.44795 -93.83166 26145 ft 328 kts 270°
2026-05-06 18:22 41.44963 -93.86204 26143 ft 328 kts 270°
2026-05-06 18:23 41.45127 -93.89235 26145 ft 328 kts 270°
2026-05-06 18:23 41.45245 -93.92267 26142 ft 326 kts 265°
2026-05-06 18:23 41.44994 -93.95261 26142 ft 325 kts 261°
2026-05-06 18:23 41.44670 -93.98243 26143 ft 325 kts 261°
2026-05-06 18:24 41.44343 -94.01224 26142 ft 325 kts 261°
2026-05-06 18:24 41.44016 -94.04210 26132 ft 325 kts 261°
2026-05-06 18:24 41.43689 -94.07197 25811 ft 325 kts 261°
2026-05-06 18:24 41.43364 -94.10162 25390 ft 322 kts 260°
2026-05-06 18:25 41.43041 -94.13103 24976 ft 320 kts 261°
2026-05-06 18:25 41.42712 -94.16060 24563 ft 318 kts 261°
2026-05-06 18:25 41.42387 -94.18962 24157 ft 316 kts 261°
2026-05-06 18:25 41.42061 -94.21849 23717 ft 314 kts 261°
2026-05-06 18:26 41.41732 -94.24722 23192 ft 313 kts 261°
2026-05-06 18:26 41.41398 -94.27580 22660 ft 312 kts 261°
2026-05-06 18:26 41.41053 -94.30428 22135 ft 311 kts 261°
2026-05-06 18:26 41.40702 -94.33263 21660 ft 309 kts 261°
2026-05-06 18:27 41.40345 -94.36090 21186 ft 309 kts 261°
2026-05-06 18:27 41.39980 -94.38908 20720 ft 308 kts 261°
2026-05-06 18:27 41.39610 -94.41719 20262 ft 308 kts 261°
2026-05-06 18:27 41.39233 -94.44530 19811 ft 308 kts 261°
2026-05-06 18:28 41.38847 -94.47330 19369 ft 308 kts 261°
2026-05-06 18:28 41.38454 -94.50129 18932 ft 308 kts 261°
2026-05-06 18:28 41.38052 -94.52928 18502 ft 308 kts 261°
2026-05-06 18:28 41.37645 -94.55727 18012 ft 307 kts 261°
2026-05-06 18:29 41.37236 -94.58518 17521 ft 307 kts 261°
2026-05-06 18:29 41.36823 -94.61308 17036 ft 307 kts 261°
2026-05-06 18:29 41.36409 -94.64082 16561 ft 306 kts 261°
2026-05-06 18:29 41.35990 -94.66859 16083 ft 305 kts 261°
2026-05-06 18:30 41.35570 -94.69629 15594 ft 305 kts 261°
2026-05-06 18:30 41.35151 -94.72389 15096 ft 304 kts 261°
2026-05-06 18:30 41.34727 -94.75146 14593 ft 304 kts 261°
2026-05-06 18:30 41.34300 -94.77900 14100 ft 304 kts 261°
2026-05-06 18:31 41.33874 -94.80644 13578 ft 303 kts 261°
2026-05-06 18:31 41.33449 -94.83389 13156 ft 303 kts 261°
2026-05-06 18:31 41.33020 -94.86178 12746 ft 304 kts 261°
2026-05-06 18:31 41.32601 -94.88934 12345 ft 304 kts 261°
2026-05-06 18:32 41.32188 -94.91690 11954 ft 303 kts 261°
2026-05-06 18:32 41.31781 -94.94439 11563 ft 303 kts 261°
2026-05-06 18:32 41.31378 -94.97191 11181 ft 302 kts 261°
2026-05-06 18:32 41.30986 -94.99913 10881 ft 296 kts 261°
2026-05-06 18:33 41.30604 -95.02581 10629 ft 290 kts 261°
2026-05-06 18:33 41.30225 -95.05224 10375 ft 285 kts 261°
2026-05-06 18:33 41.29859 -95.07784 10123 ft 278 kts 261°
2026-05-06 18:33 41.29500 -95.10277 9862 ft 271 kts 261°
2026-05-06 18:34 41.29147 -95.12723 9578 ft 269 kts 261°
2026-05-06 18:34 41.28796 -95.15154 9314 ft 267 kts 262°
2026-05-06 18:34 41.28444 -95.17565 9046 ft 266 kts 261°
2026-05-06 18:34 41.28095 -95.19974 8777 ft 264 kts 261°
2026-05-06 18:35 41.27746 -95.22373 8503 ft 263 kts 261°
2026-05-06 18:35 41.27399 -95.24759 8241 ft 263 kts 261°
2026-05-06 18:35 41.27051 -95.27144 7978 ft 262 kts 261°
2026-05-06 18:35 41.26707 -95.29516 7715 ft 261 kts 262°
2026-05-06 18:36 41.26360 -95.31890 7463 ft 261 kts 261°
2026-05-06 18:36 41.26015 -95.34247 7203 ft 259 kts 261°
2026-05-06 18:36 41.25674 -95.36594 6947 ft 258 kts 261°
2026-05-06 18:36 41.25268 -95.38911 6689 ft 259 kts 250°
2026-05-06 18:37 41.24422 -95.41040 6440 ft 261 kts 242°
2026-05-06 18:37 41.23789 -95.42428 6257 ft 261 kts 241°
2026-05-06 18:37 41.22526 -95.45169 5999 ft 259 kts 241°
2026-05-06 18:37 41.21614 -95.47227 5987 ft 259 kts 247°
2026-05-06 18:38 41.20911 -95.49406 5985 ft 251 kts 251°
2026-05-06 18:38 41.20281 -95.51505 5991 ft 240 kts 251°
2026-05-06 18:38 41.19683 -95.53505 5990 ft 226 kts 251°
2026-05-06 18:38 41.19115 -95.55392 5894 ft 216 kts 251°
2026-05-06 18:39 41.18565 -95.57215 5759 ft 209 kts 251°
2026-05-06 18:39 41.18047 -95.58966 5561 ft 205 kts 256°
2026-05-06 18:39 41.17688 -95.60803 5304 ft 202 kts 261°
2026-05-06 18:40 41.17118 -95.64432 4752 ft 201 kts 262°
2026-05-06 18:40 41.16842 -95.66241 4521 ft 200 kts 262°
2026-05-06 18:40 41.16569 -95.68050 4289 ft 200 kts 262°
2026-05-06 18:40 41.16293 -95.69851 4062 ft 199 kts 261°
2026-05-06 18:41 41.16022 -95.71652 3978 ft 198 kts 262°
2026-05-06 18:41 41.15746 -95.73455 3990 ft 201 kts 262°
2026-05-06 18:41 41.15702 -95.75273 3976 ft 195 kts 291°
2026-05-06 18:41 41.16542 -95.76579 3986 ft 186 kts 326°
2026-05-06 18:42 41.17604 -95.77528 3884 ft 181 kts 322°
2026-05-06 18:42 41.18615 -95.78499 3632 ft 178 kts 323°
2026-05-06 18:42 41.19609 -95.79445 3400 ft 169 kts 323°
2026-05-06 18:42 41.20538 -95.80326 3185 ft 160 kts 323°
2026-05-06 18:43 41.21412 -95.81152 2969 ft 150 kts 323°
2026-05-06 18:43 41.21988 -95.81698 2826 ft 145 kts 323°
2026-05-06 18:43 41.22769 -95.82437 2656 ft 135 kts 322°
2026-05-06 18:43 41.23525 -95.83153 2464 ft 132 kts 323°
2026-05-06 18:44 41.24291 -95.83879 2279 ft 132 kts 322°
2026-05-06 18:44 41.25033 -95.84584 2045 ft 132 kts 322°
2026-05-06 18:44 41.25783 -95.85295 1910 ft 133 kts 322°
2026-05-06 18:44 41.26535 -95.86004 1705 ft 134 kts 322°
2026-05-06 18:45 41.27294 -95.86723 1470 ft 133 kts 322°
2026-05-06 18:45 41.28041 -95.87427 1315 ft 131 kts 320°
2026-05-06 18:45 41.28777 -95.88127 1118 ft 131 kts 320°
2026-05-06 18:45 41.29515 -95.88829 995 ft 126 kts 320°
2026-05-06 18:46 41.30100 -95.89401 989 ft 75 kts 325°
2026-05-06 18:46 41.30377 -95.89661 989 ft 33 kts 324°
2026-05-06 18:46 41.30525 -95.89797 989 ft 14 kts 326°
2026-05-06 18:46 41.30536 -95.89909 986 ft 14 kts 237°
2026-05-06 18:47 41.30484 -95.90000 990 ft 11 kts 232°
2026-05-06 18:47 41.30419 -95.89986 989 ft 12 kts 142°
2026-05-06 18:47 41.30347 -95.89917 989 ft 12 kts 144°
2026-05-06 18:47 41.30294 -95.89883 991 ft 9 kts 188°
2026-05-06 18:48 41.30245 -95.89932 991 ft 8 kts 189°
2026-05-06 18:48 41.30195 -95.89913 987 ft 5 kts 163°
2026-05-06 18:48 41.30178 -95.89906 986 ft 1 kts 163°